Regional Weather Roundup
Issued by NWS

Home | Current Version | Previous Version | Graphics & Text | Print | Product List | Glossary On
Versions: 1 2 3 4 5 6 7 8 9 10 11 12 13 14 15 16 17 18 19 20 21 22 23 24 25 26 27 28 29 30 31 32 33 34 35 36 37 38 39 40 41 42 43 44 45 46 47 48 49 50
000
ASUS43 KFSD 201202
RWRSD

WEATHER ROUNDUP FOR SOUTH DAKOTA
NATIONAL WEATHER SERVICE SIOUX FALLS SD
700 AM CDT SAT SEP 20 2014

NOTE: "FAIR" INDICATES FEW OR NO CLOUDS BELOW 12,000 FEET WITH NO
SIGNIFICANT WEATHER AND/OR OBSTRUCTIONS TO VISIBILITY.


SDZ001>005-009-010-012>017-201300-
NORTHWEST AND NORTH CENTRAL SOUTH DAKOTA

CITY           SKY/WX    TMP DP  RH WIND       PRES   REMARKS
FAITH            N/A     56  47  71 W12       29.95
MOBRIDGE       CLEAR     49  48  97 CALM      29.88S
$$

SDZ012>016-024>037-041>051-057-063-072>074-201300-
SOUTHWEST AND SOUTH CENTRAL SOUTH DAKOTA

CITY           SKY/WX    TMP DP  RH WIND       PRES   REMARKS
RAPID CTY ARPT PTCLDY    53  45  74 NW6       30.05R
PIERRE         CLEAR     56  51  84 SW8       29.91S
CUSTER         CLEAR     53  40  61 CALM      30.17R
ELLSWORTH AFB  CLEAR     54  46  74 W7        30.04R
PHILIP         CLEAR     54  50  86 W8        29.98R
PINE RIDGE     CLEAR     47  45  93 CALM      30.06R
WINNER         FAIR      59  53  80 CALM      29.95R
$$

SDZ004>011-016>023-039-040-201300-
NORTHEAST SOUTH DAKOTA

CITY           SKY/WX    TMP DP  RH WIND       PRES   REMARKS
ABERDEEN       PTCLDY    55  52  89 W7        29.87R
WATERTOWN      CLEAR     55  53  93 NW3       29.86S
SISSETON         N/A     55  54  96 NW5       29.83R
$$

SDZ017-020-022-023-036>040-048>070-201300-
SOUTHEAST SOUTH DAKOTA

CITY           SKY/WX    TMP DP  RH WIND       PRES   REMARKS
SIOUX FALLS    CLOUDY    64  58  80 W3        29.89R
HURON          CLEAR     53  50  89 W6        29.89R
CHAMBERLAIN    CLEAR     56  53  89 CALM      29.93R
MITCHELL       MOCLDY    60  57  89 SW3       29.90R
YANKTON        CLOUDY    63  55  77 NW8       29.91R
$$

ABBREVIATIONS USED IN REMARKS
   TC - TEMPERATURE IN CELSIUS
  WCI - WIND CHILL INDEX
   HX - HEAT INDEX
  VSB - VISIBILITY



USA.gov is the U.S. government's official web portal to all federal, state and local government web resources and services.